ON1TG-13 Weather Reports


time (UTC)temp
F
wind
direction
speed
knots
gust
knots
rain 1hr
in
rain 24hr
in
rain mn
in
humidity
%
barometer
mb
20260506154956 74 16 7.0 19.1 0.00 0.00 0.00 21 1010.8
20260506153448 71 353 11.3 20.0 0.00 0.00 0.00 21 1010.8
20260506151941 73 0 8.7 17.4 0.00 0.00 0.00 21 1010.7
20260506150434 71 357 11.3 20.0 0.00 0.00 0.00 21 1010.7
20260506144926 74 359 9.6 19.1 0.00 0.00 0.00 21 1010.7
20260506143419 71 0 11.3 20.9 0.00 0.00 0.00 21 1010.4
20260506141912 73 0 10.4 21.7 0.00 0.00 0.00 21 1010.5
20260506140405 71 1 12.2 19.1 0.00 0.00 0.00 21 1010.6
20260506134857 70 4 12.2 19.1 0.00 0.00 0.00 21 1010.3
20260506133350 72 344 11.3 18.2 0.00 0.00 0.00 21 1010.5
20260506131843 71 6 9.6 18.2 0.00 0.00 0.00 21 1010.6
20260506130336 72 349 9.6 19.1 0.00 0.00 0.00 21 1010.7
20260506124828 73 358 9.6 19.1 0.00 0.00 0.00 21 1010.6
20260506123321 73 345 8.7 19.1 0.00 0.00 0.00 21 1010.3
20260506121814 214 359 13.0 22.6 0.00 0.00 0.00 21 1011.5
20260506120306 73 2 10.4 19.1 0.00 0.00 0.00 21 1010.3
20260506114759 72 358 12.2 19.1 0.00 0.00 0.00 21 1010.2
20260506113252 72 1 10.4 19.1 0.00 0.00 0.00 21 1010.3
20260506111744 72 6 8.7 18.2 0.00 0.00 0.00 21 1010.3
20260506110237 71 14 9.6 19.1 0.00 0.00 0.00 21 1010.2
20260506104730 69 13 9.6 20.9 0.00 0.00 0.00 21 1010.3
20260506103222 71 7 9.6 19.1 0.00 0.00 0.00 21 1010.3
20260506101714 69 354 10.4 20.9 0.00 0.00 0.00 21 1010.1
20260506100207 68 17 10.4 19.1 0.00 0.00 0.00 21 1010.0
20260506094700 68 5 13.0 19.1 0.00 0.00 0.00 21 1009.9
20260506093152 67 0 10.4 19.1 0.00 0.00 0.00 21 1009.9
20260506084631 68 22 8.7 19.1 0.00 0.00 0.00 21 1009.9
20260506083123 69 16 9.6 19.1 0.00 0.00 0.00 21 1009.8
20260506081616 68 1 10.4 19.1 0.00 0.00 0.00 21 1009.6
20260506073054 68 19 8.7 19.1 0.00 0.00 0.00 21 1009.4
20260506071547 69 2 9.6 19.1 0.00 0.00 0.00 21 1009.3
20260506061518 68 359 11.3 17.4 0.00 0.00 0.00 21 1009.2
20260506044315 63 1 11.3 19.1 0.00 0.00 0.00 21 1008.8
20260506042722 66 7 7.8 22.6 0.00 0.00 0.00 21 1009.2
20260506041136 64 8 12.2 20.0 0.00 0.00 0.00 21 1009.2
20260506035544 64 7 13.0 21.7 0.00 0.00 0.00 21 1009.0
20260506033951 65 16 11.3 20.0 0.00 0.00 0.00 21 1009.2
20260506030816 66 0 11.3 19.1 0.00 0.00 0.00 21 1009.2
20260506025235 65 7 12.2 21.7 0.00 0.00 0.00 21 1009.2
20260506023654 65 0 11.3 20.0 0.00 0.00 0.00 21 1009.4
20260506022109 65 13 11.3 19.1 0.00 0.00 0.00 21 1009.3
20260506020534 65 12 13.0 20.0 0.00 0.00 0.00 21 1009.5
20260506014933 66 7 9.6 21.7 0.00 0.00 0.00 21 1009.5
20260506013450 66 13 8.7 23.5 0.00 0.00 0.00 21 1009.6
20260506013357 66 13 8.7 23.5 0.00 0.00 0.00 21 1009.6
20260506011801 65 8 13.0 22.6 0.00 0.00 0.00 21 1009.4
20260506010219 66 8 9.6 25.2 0.00 0.00 0.00 21 1009.7
20260506004642 65 10 12.2 20.9 0.00 0.00 0.00 21 1009.6
20260506003103 65 10 13.0 20.9 0.00 0.00 0.00 21 1009.8
20260506001526 64 12 11.3 20.0 0.00 0.00 0.00 21 1010.0
20260505235952 65 19 9.6 20.9 0.00 0.00 0.00 21 1009.9
20260505232847 66 19 11.3 19.1 0.00 0.00 0.00 21 1009.8
20260505231317 66 15 9.6 22.6 0.00 0.00 0.00 21 1009.9
20260505225758 65 21 12.2 22.6 0.00 0.00 0.00 21 1009.9
20260505224217 66 15 11.3 21.7 0.00 0.00 0.00 21 1010.0
20260505222638 66 17 13.0 22.6 0.00 0.00 0.00 21 1010.1
20260505221059 66 16 10.4 25.2 0.00 0.00 0.00 21 1010.2
20260505215531 65 15 13.0 25.2 0.00 0.00 0.00 21 1010.0
20260505214009 66 24 11.3 24.3 0.00 0.00 0.00 21 1010.0
20260505212444 67 10 10.4 24.3 0.00 0.00 0.00 21 1010.2
20260505210924 67 18 9.6 19.1 0.00 0.00 0.00 21 1010.1
20260505205407 66 21 13.9 26.1 0.00 0.00 0.00 21 1010.2
20260505203851 65 14 13.9 25.2 0.00 0.00 0.00 21 1010.0
20260505202338 66 16 16.5 27.8 0.00 0.00 0.00 21 1010.0
20260505200822 67 6 15.6 26.9 0.00 0.00 0.00 21 1010.0
20260505195309 66 16 13.0 26.1 0.00 0.00 0.00 21 1009.6
20260505193746 65 19 15.6 26.1 0.00 0.00 0.00 21 1009.6
20260505192231 67 20 13.9 28.7 0.00 0.00 0.00 21 1009.7
20260505190717 66 17 14.8 26.1 0.00 0.00 0.00 21 1009.5
20260505185205 66 10 14.8 26.1 0.00 0.00 0.00 21 1009.5
20260505183656 67 19 13.9 24.3 0.00 0.00 0.00 21 1009.2
20260505182147 68 3 13.0 27.8 0.00 0.00 0.00 21 1009.5
20260505180638 67 17 15.6 30.4 0.00 0.00 0.00 21 1009.3
20260505175129 67 23 14.8 26.9 0.00 0.00 0.00 21 1009.5
20260505173620 66 20 15.6 26.9 0.00 0.00 0.00 21 1009.2
20260505172113 66 19 13.0 28.7 0.00 0.00 0.00 21 1009.3
20260505170606 66 8 12.2 26.9 0.00 0.00 0.00 21 1009.3
20260505165059 68 16 13.9 26.9 0.00 0.00 0.00 21 1009.6
20260505163551 67 11 14.8 21.7 0.00 0.00 0.00 21 1009.5
20260505162044 69 10 13.0 22.6 0.00 0.00 0.00 21 1009.4
20260505160537 69 7 15.6 22.6 0.00 0.00 0.00 21 1009.5